This is the latest recevied weather packets stored in our database for station/object EA1GGY-1. If no packets are shown the sender has not sent any weather packets the latest 10 day(s).
| Time | Temp. | Humidity | Pressure | Rain* | Wind** | Luminosity | Snow |
|---|---|---|---|---|---|---|---|
| 1777704516 | 12.22° C | 70% | 1011.6 hPa | - | - | - | - |
| 1777703915 | 11.67° C | 72% | 1011.7 hPa | - | - | - | - |
| 1777703314 | 12.22° C | 71% | 1011.5 hPa | - | - | - | - |
| 1777702713 | 12.22° C | 70% | 1011.5 hPa | - | - | - | - |
| 1777702112 | 11.11° C | 74% | 1011.5 hPa | - | - | - | - |
| 1777701512 | 11.67° C | 72% | 1011.5 hPa | - | - | - | - |
| 1777700911 | 10.56° C | 75% | 1011.6 hPa | - | - | - | - |
| 1777700310 | 11.67° C | 73% | 1011.5 hPa | - | - | - | - |
| 1777699711 | 11.11° C | 74% | 1011.6 hPa | - | - | - | - |
| 1777699109 | 11.11° C | 74% | 1011.6 hPa | - | - | - | - |
| 1777698508 | 12.22° C | 70% | 1011.5 hPa | - | - | - | - |
| 1777697907 | 12.78° C | 70% | 1011.6 hPa | - | - | - | - |
| 1777697306 | 11.67° C | 71% | 1011.5 hPa | - | - | - | - |
| 1777696705 | 12.22° C | 69% | 1011.5 hPa | - | - | - | - |
| 1777696104 | 12.78° C | 70% | 1011.7 hPa | - | - | - | - |
| 1777695504 | 12.22° C | 71% | 1011.6 hPa | - | - | - | - |
| 1777694902 | 12.22° C | 72% | 1011.7 hPa | - | - | - | - |
| 1777694302 | 11.11° C | 75% | 1011.8 hPa | - | - | - | - |
| 1777693702 | 11.67° C | 72% | 1011.7 hPa | - | - | - | - |
| 1777693100 | 11.67° C | 72% | 1011.8 hPa | - | - | - | - |
| 1777692499 | 11.11° C | 71% | 1011.7 hPa | - | - | - | - |
| 1777691898 | 11.67° C | 72% | 1011.7 hPa | - | - | - | - |
| 1777691297 | 12.22° C | 69% | 1011.7 hPa | - | - | - | - |
| 1777690698 | 11.67° C | 72% | 1011.7 hPa | - | - | - | - |
| 1777690095 | 11.67° C | 72% | 1012 hPa | - | - | - | - |
* Rain since midnight (hover to see other rain measurements)
** Current wind speed in m/s (hover to see current wind gust speed)